Simultaneous Nadir Overpasses (SNOs) Predictions

Prediction of SNOs between AQUA and GOES-15 Satellite Orbit:

Table of predicted SNOs for the next 14.0 days since TLE Epoch: 5/2/2013
Index Date Time (AQUA) AQUA Lat,Lon GOES-15 Lat,Lon Distance(km) Time Diff (sec)
1 05/02/2013 10:39:01 0.08,-135.72 0.03,-135.34 41.84 80
2 05/04/2013 10:26:47 -0.54,-132.75 0.04,-135.37 298.13 80
3 05/04/2013 22:48:10 -0.59,-137.93 -0.03,-135.36 292.43 80
4 05/06/2013 22:35:56 0.07,-134.97 -0.03,-135.38 47.23 80
5 05/08/2013 22:23:41 0.70,-132.00 -0.02,-135.40 386.55 80
6 05/09/2013 10:44:56 0.37,-137.16 0.02,-135.41 198.14 80
7 05/11/2013 10:32:40 -0.23,-134.18 0.01,-135.42 140.64 80
8 05/11/2013 22:54:02 -0.87,-139.37 -0.00,-135.41 450.66 80
9 05/13/2013 10:20:24 -0.87,-131.20 0.01,-135.42 479.08 80
10 05/13/2013 22:41:46 -0.23,-136.39 -0.01,-135.41 112.21 80
11 05/15/2013 22:29:30 0.44,-133.42 -0.01,-135.40 226.01 80




NCC Satellite Simultaneous Nadir Overpasses (SNOs) Prediction Service
